GORIZONT 1 [-]

Last updated on Jan. 16, 2021, 6:28 a.m. UTC

1 11158U 78118A   21014.94198630 -.00000236  00000-0  00000-0 0  9991
2 11158  11.6785 226.5076 3575084 252.4871  65.7399  1.00247901103091
UTC
Height (km)
Latitude
Longitude
Inclination
Orbital Period
UTC large
Height (km)
Speed (km/s)
/
Latitude / Longitude
Inclination (degrees)
Orbital Period (minutes)
Azimuth
Elevation
Range (km)
Doppler Factor
iOS Compass Heading
iOS Angle

Next 30 passes for location: Hong Kong

Rise time Rise Azimuth (degrees) Set time Set Azimuth (degrees) Duration Max altitude (degrees)

No matching passes for this satellites